COSMOS 1275 DEB, 42134

Orbit data source: Space-Track

COSMOS 1275 DEB, 42134 is space debris in LEO originally from a launch on Thu, 04 Jun 1981 UTC launched from the Plesetsk Missile And Space Complex (PKMTR). Debris objects in space refer to the collection of defunct objects orbiting the Earth. Examples of debris include non-operational satellites, rocket bodies, and fragments generated from explosions, collisions, or faulty payload assembly.

Loading next visibility...
COSMOS 1275 DEB details
Identifier
42134, 1981-053QW
Orbit
LEO
Last TLE update1 day ago
Origin
Flag of CISGUKOS (CIS)
ManufacturerUnknown
MissionSpacecraft
Bus & MotorUnknown
MassUnknown
Launch date (UTC)
1981-06-04 (44 years ago)
Launch vehicleUnknown
Launch site
Plesetsk Missile And Space Complex (PKMTR)
Object type
Payload
Rocket body
Debris
Shape & HBRUnknown
Radar Cross SectionSmall (<0.1 m²)

Expand to show TLE details & history

TLE from 1 day ago
0 COSMOS 1275 DEB
1 42134U 81053QW  24360.91970057  .00003822  00000-0  50351-2 0  9995
2 42134  83.0069 240.7765 0171676 257.4635 100.7260 13.55036896502596
Epoch: 2024-12-25T22:04Z
Definitive object data (Epoch: 2024-12-25T22:04:22.129Z)
Latitude-0.00004°
Longitude174.77775°
Altitude1,082.512 km
Speed7.298 km/s
True Right ascension16h 03m 06s
True Declination0° 00' 00"
Sunlit
Object was in daylight at TLE epoch
Visualization TLE readout
Latitude2.73385°
Longitude-6.26372°
Altitude1,026.886 km
Speed7.353 km/s
Apparent Right ascension06h 01m 38s
Apparent Declination-21° 24' 43"
Sunlit
Object is in full shadow
Visualization observer readout
Local Sidereal Time21:23:08
Azimuth81.987° E
Elevation-43.599°
Doppler factor1
Orbital elements
Apogee altitude1,178.497 km
Perigee altitude923.417 km
Semi-major axis7,429.094 km
Eccentricity0.0171676
Inclination83.0069°
RAAN240.7765°
Arg. of periapsis257.4635°
True anomaly102.65084°
Mean anomaly100.726°
Eccentric anomaly101.68923°
Mean motion3.38953 °/min
BSTAR0.0050351
Orbital period106.21 mins
Loading maneuver chart data...
Loading historical data...
Loading historical data...
Loading historical data...
Loading historical data...
Loading historical data...
Loading historical data...
Loading historical data...

COSMOS 1275 DEB Visibility forecast

Observer location: undefined°, undefined

Span
Click to sort rows by Start time (UTC) header in descending order
Start Az.
Max El. time (UTC)
Max El. Az.
Max El.
End time (UTC)
End Az.
11 mins2024-12-27 03:01:03.915Z11.968° NNE2024-12-27 03:07:03.915Z70.761° E27.313°2024-12-27 03:12:03.915Z127.838° SE
11 mins2024-12-27 04:49:03.915Z336.13° NNW2024-12-27 04:54:03.915Z278.673° WNW34.731°2024-12-27 05:00:03.915Z204.131° SW
4 mins2024-12-27 15:01:03.915Z89.213° E2024-12-27 15:02:03.915Z80.535° E12.332°2024-12-27 15:05:03.915Z55.141° ENE
12 mins2024-12-27 16:43:03.915Z179.622° S2024-12-27 16:48:03.915Z127.716° SE44.534°2024-12-27 16:55:03.915Z9.215° NNE
7 mins2024-12-27 18:33:03.915Z263.433° W2024-12-27 18:36:03.915Z291.829° WNW17.179°2024-12-27 18:40:03.915Z328.588° NNW
|